Time,TemperatureF,DewpointF,PressureIn,WindDirection,WindDirectionDegrees,WindSpeedMPH,WindSpeedGustMPH,Humidity,HourlyPrecipIn,Conditions,Clouds,dailyrainin,SoftwareType,DateUTC
2013-12-12 00:12:00,17.0,14.0,30.04,WNW,289,1.0,5.0,86,0.00,,,0.00,,2013-12-12 05:12:00,
2013-12-12 00:23:00,17.0,13.0,30.04,WNW,285,1.0,5.0,85,0.00,,,0.00,,2013-12-12 05:23:00,
2013-12-12 00:43:00,17.0,13.0,30.04,NW,308,1.0,4.0,85,0.00,,,0.00,,2013-12-12 05:43:00,
2013-12-12 00:53:00,17.0,14.0,30.05,NNW,343,2.0,6.0,88,0.00,,,0.00,,2013-12-12 05:53:00,
2013-12-12 01:12:00,16.0,14.0,30.05,NW,313,3.0,6.0,90,0.00,,,0.00,,2013-12-12 06:12:00,
2013-12-12 01:22:00,16.0,14.0,30.16,NW,308,2.0,6.0,90,0.00,,,0.00,,2013-12-12 06:22:00,
2013-12-12 01:43:00,16.0,14.0,30.06,WSW,252,1.0,4.0,90,0.00,,,0.00,,2013-12-12 06:43:00,
2013-12-12 01:53:00,15.0,13.0,30.06,NNW,332,1.0,4.0,91,0.00,,,0.00,,2013-12-12 06:53:00,
2013-12-12 02:22:00,15.0,13.0,30.07,NW,309,4.0,10.0,90,0.00,,,0.00,,2013-12-12 07:22:00,
2013-12-12 02:42:00,15.0,13.0,30.08,NW,315,2.0,6.0,90,0.00,,,0.00,,2013-12-12 07:42:00,
2013-12-12 02:52:00,15.0,12.0,30.08,WSW,248,4.0,8.0,89,0.00,,,0.00,,2013-12-12 07:52:00,
2013-12-12 03:11:00,14.0,12.0,30.08,West,277,2.0,6.0,90,0.00,,,0.00,,2013-12-12 08:11:00,
2013-12-12 03:22:00,14.0,12.0,30.08,West,273,1.0,5.0,91,0.00,,,0.00,,2013-12-12 08:22:00,
2013-12-12 03:42:00,14.0,12.0,30.08,NNE,17,2.0,4.0,91,0.00,,,0.00,,2013-12-12 08:42:00,
2013-12-12 03:53:00,14.0,12.0,30.08,WNW,296,2.0,4.0,91,0.00,,,0.00,,2013-12-12 08:53:00,
2013-12-12 04:12:00,13.0,11.0,30.07,WNW,298,1.0,6.0,91,0.00,,,0.00,,2013-12-12 09:12:00,
2013-12-12 04:22:00,13.0,11.0,30.07,NW,305,2.0,4.0,91,0.00,,,0.00,,2013-12-12 09:22:00,
2013-12-12 04:43:00,12.0,10.0,30.19,West,278,2.0,6.0,90,0.00,,,0.00,,2013-12-12 09:43:00,
2013-12-12 04:54:00,13.0,11.0,30.08,NNW,328,1.0,6.0,90,0.00,,,0.00,,2013-12-12 09:54:00,
2013-12-12 05:12:00,13.0,11.0,30.09,NW,319,1.0,3.0,91,0.00,,,0.00,,2013-12-12 10:12:00,
2013-12-12 05:23:00,13.0,11.0,30.09,NW,323,0.0,3.0,91,0.00,,,0.00,,2013-12-12 10:23:00,
2013-12-12 05:43:00,13.0,11.0,30.09,West,278,2.0,5.0,91,0.00,,,0.00,,2013-12-12 10:43:00,
2013-12-12 05:53:00,13.0,11.0,30.09,West,260,2.0,8.0,91,0.00,,,0.00,,2013-12-12 10:53:00,
2013-12-12 06:12:00,12.0,9.0,30.10,WNW,290,4.0,6.0,89,0.00,,,0.00,,2013-12-12 11:12:00,
2013-12-12 06:23:00,12.0,9.0,30.11,West,269,2.0,8.0,88,0.00,,,0.00,,2013-12-12 11:23:00,
2013-12-12 06:42:00,12.0,9.0,30.12,West,265,3.0,7.0,87,0.00,,,0.00,,2013-12-12 11:42:00,
2013-12-12 06:53:00,12.0,8.0,30.12,WNW,284,2.0,6.0,85,0.00,,,0.00,,2013-12-12 11:53:00,
2013-12-12 07:12:00,11.0,7.0,30.12,West,272,4.0,6.0,84,0.00,,,0.00,,2013-12-12 12:12:00,
2013-12-12 07:22:00,11.0,7.0,30.12,NNE,22,4.0,7.0,83,0.00,,,0.00,,2013-12-12 12:22:00,
2013-12-12 07:42:00,10.0,6.0,30.12,WNW,282,1.0,7.0,84,0.00,,,0.00,,2013-12-12 12:42:00,
2013-12-12 07:52:00,10.0,6.0,30.24,WSW,244,2.0,7.0,82,0.00,,,0.00,,2013-12-12 12:52:00,
2013-12-12 08:12:00,10.0,6.0,30.13,WNW,299,4.0,7.0,83,0.00,,,0.00,,2013-12-12 13:12:00,
2013-12-12 08:22:00,10.0,5.0,30.14,WNW,298,3.0,9.0,81,0.00,,,0.00,,2013-12-12 13:22:00,
2013-12-12 08:42:00,10.0,5.0,30.15,West,279,4.0,9.0,81,0.00,,,0.00,,2013-12-12 13:42:00,
2013-12-12 08:52:00,10.0,5.0,30.15,NNE,21,4.0,6.0,80,0.00,,,0.00,,2013-12-12 13:52:00,
2013-12-12 09:11:00,10.0,5.0,30.15,NNW,340,4.0,11.0,79,0.00,,,0.00,,2013-12-12 14:11:00,
2013-12-12 09:22:00,10.0,4.0,30.15,WSW,241,4.0,9.0,77,0.00,,,0.00,,2013-12-12 14:22:00,
2013-12-12 09:42:00,11.0,5.0,30.16,North,350,3.0,8.0,75,0.00,,,0.00,,2013-12-12 14:42:00,
2013-12-12 09:52:00,11.0,5.0,30.16,WNW,300,5.0,9.0,75,0.00,,,0.00,,2013-12-12 14:52:00,
2013-12-12 10:11:00,11.0,4.0,30.16,WSW,248,2.0,7.0,74,0.00,,,0.00,,2013-12-12 15:11:00,
2013-12-12 10:22:00,11.0,3.0,30.16,WSW,249,5.0,10.0,70,0.00,,,0.00,,2013-12-12 15:22:00,
2013-12-12 10:43:00,11.0,2.0,30.15,SW,222,2.0,11.0,67,0.00,,,0.00,,2013-12-12 15:43:00,
2013-12-12 10:54:00,12.0,2.0,30.14,NW,325,5.0,16.0,64,0.00,,,0.00,,2013-12-12 15:54:00,
2013-12-12 11:13:00,11.0,1.0,30.25,NW,305,3.0,11.0,62,0.00,,,0.00,,2013-12-12 16:13:00,
2013-12-12 11:23:00,12.0,1.0,30.13,WNW,300,5.0,10.0,61,0.00,,,0.00,,2013-12-12 16:23:00,
2013-12-12 11:43:00,13.0,2.0,30.11,NW,322,6.0,12.0,60,0.00,,,0.00,,2013-12-12 16:43:00,
2013-12-12 11:53:00,13.0,0.0,30.11,NNE,22,8.0,15.0,55,0.00,,,0.00,,2013-12-12 16:53:00,
2013-12-12 12:12:00,13.0,0.0,30.11,WSW,248,5.0,16.0,54,0.00,,,0.00,,2013-12-12 17:12:00,
2013-12-12 12:23:00,13.0,-1.0,30.10,WSW,238,4.0,13.0,53,0.00,,,0.00,,2013-12-12 17:23:00,
2013-12-12 12:43:00,14.0,0.0,30.10,WNW,299,3.0,9.0,53,0.00,,,0.00,,2013-12-12 17:43:00,
2013-12-12 12:53:00,14.0,-1.0,30.09,WNW,290,5.0,11.0,50,0.00,,,0.00,,2013-12-12 17:53:00,
2013-12-12 13:12:00,15.0,-1.0,30.09,NNW,344,5.0,10.0,49,0.00,,,0.00,,2013-12-12 18:12:00,
2013-12-12 13:22:00,15.0,-2.0,30.09,NW,306,8.0,15.0,46,0.00,,,0.00,,2013-12-12 18:22:00,
2013-12-12 13:43:00,15.0,-2.0,30.08,WNW,295,6.0,11.0,47,0.00,,,0.00,,2013-12-12 18:43:00,
2013-12-12 13:52:00,16.0,-1.0,30.08,North,358,4.0,10.0,46,0.00,,,0.00,,2013-12-12 18:52:00,
2013-12-12 14:11:00,16.0,-1.0,30.08,West,259,4.0,14.0,46,0.00,,,0.00,,2013-12-12 19:11:00,
2013-12-12 14:21:00,16.0,-2.0,30.19,West,270,5.0,14.0,45,0.00,,,0.00,,2013-12-12 19:21:00,
2013-12-12 14:42:00,16.0,-2.0,30.08,West,270,4.0,11.0,43,0.00,,,0.00,,2013-12-12 19:42:00,
2013-12-12 14:52:00,17.0,-1.0,30.07,West,273,2.0,13.0,45,0.00,,,0.00,,2013-12-12 19:52:00,
2013-12-12 15:12:00,17.0,-1.0,30.07,West,277,3.0,9.0,44,0.00,,,0.00,,2013-12-12 20:12:00,
2013-12-12 15:22:00,15.0,-2.0,30.07,WSW,239,3.0,10.0,47,0.00,,,0.00,,2013-12-12 20:22:00,
2013-12-12 15:42:00,16.0,0.0,30.06,WSW,238,2.0,7.0,48,0.00,,,0.00,,2013-12-12 20:42:00,
2013-12-12 15:52:00,16.0,0.0,30.06,West,264,2.0,7.0,48,0.00,,,0.00,,2013-12-12 20:52:00,
2013-12-12 16:11:00,14.0,-1.0,30.06,WNW,282,2.0,6.0,50,0.00,,,0.00,,2013-12-12 21:11:00,
2013-12-12 16:22:00,14.0,0.0,30.06,West,264,1.0,3.0,52,0.00,,,0.00,,2013-12-12 21:22:00,
2013-12-12 16:43:00,13.0,0.0,30.05,WSW,254,0.0,2.0,55,0.00,,,0.00,,2013-12-12 21:43:00,
2013-12-12 16:53:00,12.0,0.0,30.05,WSW,246,0.0,2.0,57,0.00,,,0.00,,2013-12-12 21:53:00,
2013-12-12 17:12:00,12.0,0.0,30.05,ENE,77,1.0,3.0,57,0.00,,,0.00,,2013-12-12 22:12:00,
2013-12-12 17:23:00,11.0,0.0,30.17,NE,50,0.0,2.0,61,0.00,,,0.00,,2013-12-12 22:23:00,
2013-12-12 17:43:00,10.0,0.0,30.05,West,273,0.0,1.0,62,0.00,,,0.00,,2013-12-12 22:43:00,
2013-12-12 17:53:00,11.0,0.0,30.05,NW,305,0.0,1.0,61,0.00,,,0.00,,2013-12-12 22:53:00,
2013-12-12 18:12:00,12.0,1.0,30.05,West,263,2.0,7.0,61,0.00,,,0.00,,2013-12-12 23:12:00,
2013-12-12 18:22:00,12.0,1.0,30.04,West,262,1.0,9.0,61,0.00,,,0.00,,2013-12-12 23:22:00,
2013-12-12 18:43:00,12.0,2.0,30.04,West,270,3.0,11.0,63,0.00,,,0.00,,2013-12-12 23:43:00,
2013-12-12 18:53:00,12.0,2.0,30.04,WSW,248,3.0,11.0,63,0.00,,,0.00,,2013-12-12 23:53:00,
2013-12-12 19:11:00,12.0,3.0,30.03,NW,320,3.0,7.0,65,0.00,,,0.00,,2013-12-13 00:11:00,
2013-12-12 19:22:00,12.0,3.0,30.03,West,272,4.0,10.0,66,0.00,,,0.00,,2013-12-13 00:22:00,
2013-12-12 19:42:00,13.0,4.0,30.02,SW,226,4.0,13.0,66,0.00,,,0.00,,2013-12-13 00:42:00,
2013-12-12 19:53:00,13.0,3.0,30.02,WSW,242,7.0,14.0,65,0.00,,,0.00,,2013-12-13 00:53:00,
2013-12-12 20:12:00,13.0,4.0,30.02,SW,235,7.0,18.0,66,0.00,,,0.00,,2013-12-13 01:12:00,
2013-12-12 20:22:00,13.0,4.0,30.01,SW,217,7.0,19.0,66,0.00,,,0.00,,2013-12-13 01:22:00,
2013-12-12 20:42:00,13.0,4.0,30.13,SW,214,9.0,19.0,67,0.00,,,0.00,,2013-12-13 01:42:00,
2013-12-12 20:53:00,13.0,4.0,30.12,North,350,6.0,16.0,66,0.00,,,0.00,,2013-12-13 01:53:00,
2013-12-12 21:11:00,13.0,4.0,29.98,WSW,257,7.0,19.0,67,0.00,,,0.00,,2013-12-13 02:11:00,
2013-12-12 21:22:00,13.0,4.0,29.98,SW,227,7.0,18.0,67,0.00,,,0.00,,2013-12-13 02:22:00,
2013-12-12 21:52:00,13.0,5.0,29.96,WSW,256,5.0,18.0,69,0.00,,,0.00,,2013-12-13 02:52:00,
2013-12-12 22:12:00,13.0,5.0,29.95,WSW,258,6.0,16.0,69,0.00,,,0.00,,2013-12-13 03:12:00,
2013-12-12 22:22:00,13.0,5.0,29.94,WSW,252,9.0,16.0,69,0.00,,,0.00,,2013-12-13 03:22:00,
2013-12-12 22:43:00,13.0,4.0,29.93,WSW,238,10.0,16.0,68,0.00,,,0.00,,2013-12-13 03:43:00,
2013-12-12 22:53:00,13.0,4.0,29.93,SW,223,8.0,18.0,67,0.00,,,0.00,,2013-12-13 03:53:00,
2013-12-12 23:13:00,13.0,4.0,29.92,West,260,7.0,14.0,67,0.00,,,0.00,,2013-12-13 04:13:00,
2013-12-12 23:22:00,13.0,4.0,29.92,WSW,243,6.0,16.0,68,0.00,,,0.00,,2013-12-13 04:22:00,
2013-12-12 23:44:00,13.0,5.0,29.91,SW,216,5.0,15.0,69,0.00,,,0.00,,2013-12-13 04:44:00,
2013-12-12 23:53:00,13.0,5.0,30.04,WSW,239,7.0,15.0,69,0.00,,,0.00,,2013-12-13 04:53:00,